Flag for Spain Weather past 2 weeks in Madrid, Spain

Now
84 °F

Sunny.


Feels Like: 84 °F
Forecast: 77 / 93 °F
Wind: 3 mph from North

Location: Madrid / Cuatro Vientos

Current Time: Aug 30, 2014 at 1:02:27 PM

Latest Report: Aug 30, 2014 at 12:30 PM


Visibility: 10 mi

Pressure: 30.09 "Hg

Humidity: 43%

Dew point: 59 °F

Location of MadridLocation

Historic Weather in Madrid — Graph

°F

Madrid temperature yesterday

Maximum temperature yesterday: 93 °F (at 7:00 PM)
Minimum temperature yesterday: 68 °F (at 7:00 AM)
Average temperature yesterday: 84 °F

Past Weeks' High & Low Weather Summary

 TemperatureHumidityPressure
High95 °F (Aug 26, 3:30 PM)78% (Aug 19, 7:30 AM)30.18 "Hg (Aug 19, 7:30 AM)
Low61 °F (Aug 16, 8:00 AM)7% (Aug 28, 6:00 PM)29.83 "Hg (Aug 18, 7:00 PM)
Average82 °F29%30.04 "Hg
* Reported Aug 15 12:00 Noon — Aug 30 12:00 Noon, Madrid, Weather by CustomWeather, © 2014

Note: Actual official high and low records may vary slightly from our data, if they occured in-between our weather recording intervals... More about our weather records

Advertising

Madrid weather history for previous 24 hours

 ConditionsComfort  
Time TempWeatherWind HumidityBarometerVisibility
12:00 PM
Aug 30
82 °FPassing clouds.5 mph45%30.09 "HgN/A
11:30 AM79 °FPassing clouds.5 mph54%30.09 "HgN/A
11:00 AM79 °FSunny.3 mph54%30.09 "Hg10 mi
10:30 AM77 °FPassing clouds.3 mph57%30.09 "HgN/A
10:00 AM75 °FPassing clouds.5 mph65%30.09 "HgN/A
9:30 AM73 °FPassing clouds.5 mph65%30.09 "HgN/A
9:00 AM73 °FPassing clouds.5 mph61%30.09 "HgN/A
8:30 AM72 °FClear.2 mph65%30.07 "Hg10 mi
8:00 AM70 °FPassing clouds.3 mph69%30.07 "HgN/A
7:30 AM70 °FPassing clouds.3 mph69%30.07 "HgN/A
7:00 AM70 °FClear.1 mph64%30.07 "Hg10 mi
10:00 PM
Aug 29
79 °FClear.2 mph30%30.01 "Hg10 mi
9:00 PM82 °FSunny.5 mph26%29.98 "Hg10 mi
8:30 PM86 °FSunny.3 mph24%29.98 "Hg10 mi
8:00 PM88 °FSunny.2 mph21%29.98 "Hg10 mi
7:30 PM90 °FPassing clouds.5 mph20%29.98 "HgN/A
7:00 PM93 °FSunny.1 mph16%30.01 "Hg10 mi
6:30 PM91 °FSunny.3 mph17%30.01 "Hg10 mi
6:00 PM91 °FPassing clouds.7 mph18%30.01 "HgN/A
5:30 PM91 °FPassing clouds.8 mph18%30.01 "HgN/A
5:00 PM91 °FPassing clouds.7 mph18%30.01 "HgN/A
4:30 PM91 °FSunny.7 mph20%30.04 "Hg10 mi
4:00 PM91 °FPassing clouds.6 mph21%30.04 "HgN/A
3:30 PM90 °FSunny.3 mph21%30.04 "Hg10 mi
3:00 PM90 °FPassing clouds.12 mph20%30.04 "HgN/A
2:30 PM90 °FSunny.3 mph21%30.04 "Hg10 mi
2:00 PM88 °FSunny.5 mph22%30.04 "Hg10 mi
1:30 PM88 °FSunny.5 mph24%30.07 "Hg10 mi
1:00 PM86 °FSunny.5 mph25%30.07 "Hg10 mi
Weather by CustomWeather, © 2014

See weather overviewHow to use our weather pages